Overview Statistics Trail Chart Weather Telemetry Raw packets
 

This is the latest recevied weather packets stored in our database for station/object CE3TDM-10. If no packets are shown the sender has not sent any weather packets the latest 10 day(s).

<< 8 9 10 11 12 13 14 >>
Time Temp. Humidity Pressure Rain* Wind** Luminosity Snow
1788337019 25.56° C 33% 921.7 hPa - - - -
1788335219 25.56° C 34% 921.8 hPa - - - -
1788333419 25.56° C 34% 922 hPa - - - -
1788331619 25.56° C 33% 922.3 hPa - - - -
1788329819 25.56° C 33% 922.5 hPa - - - -
1788328018 25.56° C 33% 922.3 hPa - - - -
1788327118 26.11° C 34% 922.4 hPa - - - -
1788326218 26.11° C 33% 922.5 hPa - - - -
1788325318 26.11° C 33% 922.6 hPa - - - -
1788324418 26.11° C 33% 922.4 hPa - - - -
1788322618 26.11° C 33% 921.8 hPa - - - -
1788321718 26.11° C 33% 922 hPa - - - -
1788320818 26.11° C 33% 922.4 hPa - - - -
1788319918 26.67° C 33% 922.7 hPa - - - -
1788319018 27.78° C 32% 922.9 hPa - - - -
1788317836 28.33° C 31% 922.7 hPa - - - -
1788317217 28.33° C 31% 922.7 hPa - - - -
1788316317 28.89° C 31% 922.6 hPa - - - -
1788315417 29.44° C 31% 922.9 hPa - - - -
1788313617 30° C 31% 923.1 hPa - - - -
1788312717 29.44° C 32% 923.1 hPa - - - -
1788311817 26.11° C 35% 922.9 hPa - - - -
1788310917 26.11° C 35% 923 hPa - - - -
1788310017 26.11° C 34% 922.8 hPa - - - -
1788309117 26.11° C 34% 922.7 hPa - - - -

* Rain since midnight (hover to see other rain measurements)
** Current wind speed in m/s (hover to see current wind gust speed)